| time (UTC) | temp F | wind direction | speed knots | gust knots | rain 1hr in | rain 24hr in | rain mn in | humidity % | barometer mb |
| 20260505041520 | 60 | 302 | 0.9 | 1.7 | 0.00 | 0.00 | 0.00 | 69 | 1032.2 |
| 20260505040517 | 60 | 296 | 1.7 | 3.5 | 0.00 | 0.00 | 0.00 | 68 | 1032.2 |
| 20260505035614 | 61 | 345 | 1.7 | 5.2 | 0.00 | 0.00 | 0.00 | 67 | 1032.2 |
| 20260505034612 | 61 | 261 | 1.7 | 5.2 | 0.00 | 0.00 | 0.00 | 67 | 1032.3 |
| 20260505033609 | 61 | 275 | 2.6 | 6.1 | 0.00 | 0.00 | 0.00 | 67 | 1032.3 |
| 20260505032607 | 61 | 308 | 2.6 | 6.1 | 0.00 | 0.00 | 0.00 | 67 | 1032.3 |
| 20260505031605 | 63 | 52 | 0.9 | 3.5 | 0.00 | 0.00 | 0.00 | 65 | 1032.2 |
| 20260505030643 | 61 | 258 | 1.7 | 3.5 | 0.00 | 0.00 | 0.00 | 67 | 1032.2 |
| 20260505025603 | 61 | 277 | 3.5 | 7.8 | 0.00 | 0.00 | 0.00 | 67 | 1032.3 |
| 20260505024557 | 61 | 247 | 3.5 | 9.6 | 0.00 | 0.00 | 0.00 | 67 | 1032.2 |
| 20260505023554 | 62 | 104 | 0.9 | 3.5 | 0.00 | 0.00 | 0.00 | 66 | 1032.3 |
| 20260505022612 | 62 | 257 | 1.7 | 5.2 | 0.00 | 0.00 | 0.00 | 67 | 1032.3 |
| 20260505021609 | 62 | 244 | 5.2 | 11.3 | 0.00 | 0.00 | 0.00 | 67 | 1032.3 |
| 20260505020547 | 62 | 259 | 2.6 | 7.8 | 0.00 | 0.00 | 0.00 | 66 | 1032.5 |
| 20260505015543 | 61 | 259 | 3.5 | 9.6 | 0.00 | 0.00 | 0.00 | 68 | 1032.5 |
| 20260505014541 | 61 | 267 | 2.6 | 6.1 | 0.00 | 0.00 | 0.00 | 68 | 1032.5 |
| 20260505013604 | 60 | 259 | 3.5 | 9.6 | 0.00 | 0.00 | 0.00 | 70 | 1032.7 |
| 20260505012537 | 61 | 289 | 4.3 | 9.6 | 0.00 | 0.00 | 0.00 | 68 | 1032.9 |
| 20260505011534 | 60 | 224 | 3.5 | 7.8 | 0.00 | 0.00 | 0.00 | 67 | 1033.0 |
| 20260505010530 | 60 | 292 | 2.6 | 6.1 | 0.00 | 0.00 | 0.00 | 68 | 1033.2 |
| 20260505005528 | 60 | 276 | 3.5 | 11.3 | 0.00 | 0.00 | 0.00 | 67 | 1033.3 |
| 20260505004546 | 60 | 259 | 5.2 | 13.9 | 0.00 | 0.00 | 0.00 | 68 | 1033.5 |
| 20260505003523 | 60 | 220 | 1.7 | 7.0 | 0.00 | 0.00 | 0.00 | 66 | 1033.6 |
| 20260505002521 | 60 | 244 | 4.3 | 11.3 | 0.00 | 0.00 | 0.00 | 68 | 1033.7 |
| 20260505001518 | 60 | 332 | 0.9 | 6.1 | 0.00 | 0.00 | 0.00 | 67 | 1033.8 |
| 20260505000636 | 59 | 291 | 2.6 | 9.6 | 0.00 | 0.00 | 0.00 | 68 | 1034.0 |
| 20260504235612 | 58 | 292 | 4.3 | 11.3 | 0.00 | 0.00 | 0.00 | 70 | 1034.2 |
| 20260504234611 | 59 | 222 | 5.2 | 11.3 | 0.00 | 0.00 | 0.00 | 69 | 1034.5 |
| 20260504233608 | 60 | 293 | 3.5 | 7.8 | 0.00 | 0.00 | 0.00 | 69 | 1034.5 |
| 20260504232605 | 58 | 319 | 0.9 | 3.5 | 0.00 | 0.00 | 0.00 | 70 | 1034.6 |
| 20260504231644 | 58 | 349 | 3.5 | 9.6 | 0.00 | 0.00 | 0.00 | 70 | 1034.6 |
| 20260504230600 | 58 | 247 | 1.7 | 7.8 | 0.00 | 0.00 | 0.00 | 70 | 1034.9 |
| 20260504225557 | 57 | 263 | 3.5 | 7.8 | 0.00 | 0.00 | 0.00 | 71 | 1034.8 |
| 20260504224554 | 56 | 288 | 5.2 | 9.6 | 0.00 | 0.00 | 0.00 | 71 | 1034.7 |
| 20260504223551 | 56 | 288 | 6.1 | 12.2 | 0.00 | 0.00 | 0.00 | 71 | 1034.6 |
| 20260504222549 | 56 | 292 | 3.5 | 7.0 | 0.00 | 0.00 | 0.00 | 73 | 1034.6 |
| 20260504221548 | 56 | 316 | 3.5 | 7.0 | 0.00 | 0.00 | 0.00 | 73 | 1034.5 |
| 20260504220544 | 56 | 353 | 3.5 | 7.0 | 0.00 | 0.00 | 0.00 | 73 | 1034.6 |
| 20260504215541 | 56 | 330 | 2.6 | 5.2 | 0.00 | 0.00 | 0.00 | 71 | 1034.6 |
| 20260504214539 | 57 | 328 | 2.6 | 7.0 | 0.00 | 0.00 | 0.00 | 72 | 1034.6 |
| 20260504213537 | 58 | 1 | 2.6 | 5.2 | 0.00 | 0.00 | 0.00 | 71 | 1034.6 |
| 20260504212534 | 56 | 331 | 3.5 | 7.0 | 0.00 | 0.00 | 0.00 | 72 | 1034.8 |
| 20260504211531 | 56 | 14 | 2.6 | 5.2 | 0.00 | 0.00 | 0.00 | 72 | 1034.8 |
| 20260504210530 | 55 | 12 | 3.5 | 7.0 | 0.00 | 0.00 | 0.00 | 73 | 1034.8 |
| 20260504205527 | 55 | 13 | 2.6 | 5.2 | 0.00 | 0.00 | 0.00 | 73 | 1034.9 |
| 20260504204523 | 55 | 333 | 4.3 | 9.6 | 0.00 | 0.00 | 0.00 | 74 | 1034.9 |
| 20260504203520 | 54 | 337 | 3.5 | 9.6 | 0.00 | 0.00 | 0.00 | 76 | 1034.8 |
| 20260504202517 | 53 | 332 | 3.5 | 11.3 | 0.00 | 0.00 | 0.00 | 79 | 1034.8 |
| 20260504201616 | 52 | 1 | 5.2 | 9.6 | 0.00 | 0.00 | 0.00 | 80 | 1034.8 |
| 20260504200612 | 52 | 2 | 3.5 | 7.8 | 0.00 | 0.00 | 0.00 | 81 | 1034.8 |
| 20260504195609 | 52 | 27 | 2.6 | 6.1 | 0.00 | 0.00 | 0.00 | 79 | 1034.7 |
| 20260504194607 | 51 | 56 | 2.6 | 7.0 | 0.00 | 0.00 | 0.00 | 80 | 1034.6 |
| 20260504193604 | 53 | 61 | 1.7 | 3.5 | 0.00 | 0.00 | 0.00 | 76 | 1034.6 |
| 20260504192602 | 53 | 53 | 3.5 | 7.0 | 0.00 | 0.00 | 0.00 | 76 | 1034.5 |
| 20260504191600 | 53 | 33 | 1.7 | 3.5 | 0.00 | 0.00 | 0.00 | 75 | 1034.5 |
| 20260504190557 | 52 | 63 | 2.6 | 6.1 | 0.00 | 0.00 | 0.00 | 76 | 1034.3 |
| 20260504185553 | 53 | 65 | 5.2 | 13.9 | 0.00 | 0.00 | 0.00 | 75 | 1034.4 |
| 20260504184551 | 53 | 43 | 3.5 | 6.1 | 0.00 | 0.00 | 0.00 | 75 | 1034.4 |
| 20260504183553 | 53 | 83 | 2.6 | 6.1 | 0.00 | 0.00 | 0.00 | 76 | 1034.3 |
| 20260504182607 | 53 | 53 | 2.6 | 7.0 | 0.00 | 0.00 | 0.00 | 75 | 1034.4 |
| 20260504181548 | 53 | 53 | 3.5 | 7.8 | 0.00 | 0.00 | 0.00 | 75 | 1034.4 |
| 20260504180545 | 53 | 95 | 3.5 | 7.0 | 0.00 | 0.00 | 0.00 | 75 | 1034.4 |
| 20260504175539 | 53 | 119 | 2.6 | 6.1 | 0.00 | 0.00 | 0.00 | 76 | 1034.5 |
| 20260504174617 | 53 | 143 | 0.9 | 3.5 | 0.00 | 0.00 | 0.00 | 77 | 1034.5 |
| 20260504173535 | 53 | 123 | 1.7 | 7.0 | 0.00 | 0.00 | 0.00 | 76 | 1034.6 |
| 20260504172531 | 53 | 83 | 1.7 | 6.1 | 0.00 | 0.00 | 0.00 | 76 | 1034.5 |
| 20260504171548 | 53 | 94 | 3.5 | 12.2 | 0.00 | 0.00 | 0.00 | 76 | 1034.6 |
| 20260504170525 | 53 | 63 | 1.7 | 5.2 | 0.00 | 0.00 | 0.00 | 77 | 1034.6 |
| 20260504150554 | 54 | 298 | 2.6 | 9.6 | 0.00 | 0.00 | 0.00 | 74 | 1035.0 |
| 20260504140539 | 54 | 26 | 2.6 | 7.8 | 0.00 | 0.00 | 0.00 | 75 | 1035.3 |
| 20260504130524 | 54 | 35 | 1.7 | 6.1 | 0.00 | 0.00 | 0.00 | 77 | 1035.5 |
| 20260504110557 | 54 | 50 | 1.7 | 3.5 | 0.00 | 0.00 | 0.00 | 76 | 1035.7 |
| 20260504100559 | 54 | 35 | 0.0 | 1.7 | 0.00 | 0.00 | 0.00 | 78 | 1035.8 |
| 20260504081609 | 53 | 34 | 0.9 | 3.5 | 0.00 | 0.00 | 0.00 | 81 | 1035.3 |
| 20260504080606 | 52 | 350 | 1.7 | 3.5 | 0.00 | 0.00 | 0.00 | 81 | 1035.2 |
| 20260504050520 | 55 | 327 | 3.5 | 9.6 | 0.00 | 0.00 | 0.00 | 76 | 1034.4 |